This demonstration page uses our WeatherBlox Daily Observations layout. Learn more.

Left ArrowRight Arrow

Hourly Observations for March 10, 2018

Temp ( °F °C ) Dew Point ( °F °C ) Humidity (%) Winds ( mph kmh ) Pressure ( in mb ) Visibility ( mi km ) Precip ( " mm )
12:15 am 00:15 Cloudy 30 -1 21 -6 69 69 S 6 9 30.06 1018 10 16 N/A
12:35 am 00:35 Partly Cloudy 30 -1 21 -6 69 69 SSW 9 15 30.06 1018 10 16 N/A
12:55 am 00:55 Mostly Cloudy 32 undefined 23 -5 69 69 W 7 11 30.06 1018 10 16 N/A
1:15 am 01:15 Partly Cloudy 30 -1 23 -5 75 75 W 9 15 30.06 1018 10 16 N/A
1:35 am 01:35 Clear with Nearby Thunderstorms 30 -1 23 -5 75 75 W 7 11 30.06 1018 10 16 N/A
1:55 am 01:55 Clear 28 -2 21 -6 74 74 W 7 11 30.06 1018 10 16 N/A
2:15 am 02:15 Clear 28 -2 21 -6 74 74 W 7 11 30.06 1018 10 16 N/A
2:35 am 02:35 Clear 30 -1 23 -5 75 75 WNW 9 15 30.06 1018 10 16 N/A
2:55 am 02:55 Clear 32 undefined 23 -5 69 69 WNW 7 11 30.06 1018 10 16 N/A
3:15 am 03:15 Clear 28 -2 23 -5 80 80 W 3 6 30.06 1018 10 16 N/A
3:35 am 03:35 Clear 30 -1 21 -6 69 69 N N/A 30.06 1018 10 16 N/A
3:55 am 03:55 Clear 30 -1 21 -6 69 69 SSW 3 6 30.06 1018 10 16 N/A
4:15 am 04:15 Clear 27 -3 21 -6 80 80 SW 3 6 30.06 1018 10 16 N/A
4:35 am 04:35 Clear 27 -3 21 -6 80 80 SW 3 6 30.06 1018 10 16 N/A
4:55 am 04:55 Clear 25 -4 21 -6 86 86 WSW 3 6 30.06 1018 10 16 N/A
5:15 am 05:15 Clear 27 -3 21 -6 80 80 WNW 5 7 30.06 1018 10 16 N/A
5:35 am 05:35 Clear 27 -3 21 -6 80 80 WNW 5 7 30.09 1019 10 16 N/A
5:55 am 05:55 Clear 27 -3 23 -5 86 86 N N/A 30.09 1019 10 16 N/A
6:15 am 06:15 Clear 27 -3 21 -6 80 80 N N/A 30.09 1019 10 16 N/A
6:35 am 06:35 Sunny 27 -3 21 -6 80 80 N N/A 30.09 1019 10 16 N/A
6:55 am 06:55 Sunny 27 -3 21 -6 80 80 N N/A 30.09 1019 10 16 N/A
7:15 am 07:15 Sunny 28 -2 23 -5 80 80 N N/A 30.09 1019 10 16 N/A
7:35 am 07:35 Sunny 30 -1 27 -3 86 86 N N/A 30.12 1020 10 16 N/A
7:55 am 07:55 Sunny 34 1 23 -5 65 65 NNE 5 7 30.12 1020 10 16 N/A
8:15 am 08:15 Sunny 34 1 23 -5 65 65 N 6 9 30.12 1020 10 16 N/A
8:35 am 08:35 Sunny 36 2 25 -4 65 65 N N/A 30.12 1020 10 16 N/A
8:55 am 08:55 Sunny 36 2 23 -5 60 60 NNW 9 15 30.12 1020 10 16 N/A
9:15 am 09:15 Sunny 37 3 23 -5 56 56 NNW 8 13 30.12 1020 10 16 N/A
9:35 am 09:35 Sunny 37 3 21 -6 52 52 NNW 10 17 30.12 1020 10 16 N/A
9:55 am 09:55 Sunny 41 5 23 -5 49 49 NNW 9 15 30.12 1020 10 16 N/A
10:15 am 10:15 Sunny 41 5 23 -5 49 49 NW 7 11 30.09 1019 10 16 N/A
10:35 am 10:35 Sunny 41 5 23 -5 49 49 NW 12 19 30.09 1019 10 16 N/A
10:55 am 10:55 Sunny 43 6 23 -5 46 46 WNW 13 20 30.09 1019 10 16 N/A
11:15 am 11:15 Sunny 43 6 23 -5 46 46 NW 7 11 30.09 1019 10 16 N/A
11:35 am 11:35 Sunny 45 7 25 -4 46 46 W 3 6 30.06 1018 10 16 N/A
11:55 am 11:55 Sunny 45 7 25 -4 46 46 W 7 11 30.06 1018 10 16 N/A
12:15 pm 12:15 Partly Cloudy 45 7 23 -5 42 42 N N/A 30.06 1018 10 16 N/A
12:35 pm 12:35 Partly Cloudy 46 8 27 -3 46 46 W 7 11 30.03 1017 10 16 N/A
12:55 pm 12:55 Partly Cloudy 46 8 25 -4 43 43 WSW 7 11 30.03 1017 10 16 N/A
1:15 pm 13:15 Partly Cloudy 48 9 25 -4 40 40 WNW 5 7 30.00 1016 10 16 N/A
1:35 pm 13:35 Partly Cloudy 50 10 25 -4 37 37 WNW 6 9 29.97 1015 10 16 N/A
1:55 pm 13:55 Sunny 50 10 25 -4 37 37 SSW 7 11 29.97 1015 10 16 N/A
2:15 pm 14:15 Sunny 48 9 23 -5 37 37 WNW 6 9 30.00 1016 10 16 N/A
2:35 pm 14:35 Partly Cloudy 50 10 25 -4 37 37 S 5 7 29.94 1014 10 16 N/A
2:55 pm 14:55 Sunny 50 10 23 -5 35 35 NW 12 19 29.94 1014 10 16 N/A
3:15 pm 15:15 Sunny 50 10 23 -5 35 35 WNW 9 15 29.94 1014 10 16 N/A
3:35 pm 15:35 Sunny 50 10 23 -5 35 35 NNW 10 17 29.94 1014 10 16 N/A
3:55 pm 15:55 Sunny 50 10 23 -5 35 35 NNW 12 19 29.94 1014 10 16 N/A
4:15 pm 16:15 Sunny 50 10 25 -4 37 37 W 6 9 29.97 1015 10 16 N/A
4:35 pm 16:35 Sunny 50 10 23 -5 35 35 NNW 10 17 29.97 1015 10 16 N/A
4:55 pm 16:55 Sunny 50 10 23 -5 35 35 NW 5 7 29.97 1015 10 16 N/A
5:15 pm 17:15 Sunny 50 10 23 -5 35 35 WNW 9 15 29.97 1015 10 16 N/A
5:35 pm 17:35 Sunny 48 9 23 -5 37 37 NW 3 6 30.00 1016 10 16 N/A
5:55 pm 17:55 Sunny 46 8 21 -6 37 37 N 6 9 30.03 1017 10 16 N/A
6:15 pm 18:15 Clear 46 8 21 -6 37 37 N N/A 30.03 1017 10 16 N/A
6:35 pm 18:35 Clear 45 7 23 -5 42 42 N N/A 30.06 1018 10 16 N/A
6:50 pm 18:50 Clear 45 7 23 -5 42 42 N N/A 30.06 1018 10 16 N/A
7:15 pm 19:15 Clear 43 6 25 -4 49 49 N N/A 30.06 1018 10 16 N/A
7:35 pm 19:35 Clear 43 6 23 -5 46 46 N 5 7 30.06 1018 10 16 N/A
7:50 pm 19:50 Clear 37 3 27 -3 65 65 N 3 6 30.09 1019 10 16 N/A
8:15 pm 20:15 Clear 41 5 21 -6 45 45 N 5 7 30.09 1019 10 16 N/A
8:35 pm 20:35 Clear 37 3 23 -5 56 56 N N/A 30.09 1019 10 16 N/A
8:50 pm 20:50 Clear 37 3 23 -5 56 56 NE 3 6 30.09 1019 10 16 N/A
9:15 pm 21:15 Clear 39 4 21 -6 48 48 NE 5 7 30.09 1019 10 16 N/A
9:35 pm 21:35 Clear 39 4 21 -6 48 48 NE 5 7 30.09 1019 10 16 N/A
9:50 pm 21:50 Clear 37 3 21 -6 52 52 NE 3 6 30.09 1019 10 16 N/A
10:15 pm 22:15 Clear 34 1 27 -3 75 75 NNE 5 7 30.09 1019 10 16 N/A
10:35 pm 22:35 Clear 37 3 23 -5 56 56 NNE 3 6 30.09 1019 10 16 N/A
11:00 pm 23:00 Clear 32 undefined 27 -3 80 80 N 5 7 30.12 1020 10 16 N/A
11:15 pm 23:15 Clear 32 undefined 27 -3 80 80 N 5 7 30.12 1020 10 16 N/A
11:35 pm 23:35 Clear 32 undefined 25 -4 75 75 N 6 9 30.12 1020 10 16 N/A
11:50 pm 23:50 Clear 34 1 23 -5 65 65 N 6 9 30.12 1020 10 16 N/A

Powered by AerisWeather